Regional Weather Roundup
Issued by NWS

Home | Current Version | Previous Version | Graphics & Text | Print | Product List | Glossary Off
Versions: 1 2 3 4 5 6 7 8 9 10 11 12 13 14 15 16 17 18 19 20 21 22 23 24 25 26 27 28 29 30 31 32 33 34 35 36 37 38 39 40 41 42 43 44 45 46 47 48 49 50

000
ASUS43 KTOP 121108
RWRKS

WEATHER ROUNDUP FOR KANSAS
NATIONAL WEATHER SERVICE GOODLAND KS
500 AM CST FRI FEB 12 2016

NOTE:  "FAIR" INDICATES FEW OR NO CLOUDS BELOW 12,000 FEET WITH NO
SIGNIFICANT WEATHER AND/OR OBSTRUCTIONS TO VISIBILITY.

KSZ001>006-013>018-027>032-041>047-121200-
NORTHWEST KANSAS

CITY           SKY/WX    TMP DP  RH WIND       PRES   REMARKS
GOODLAND       CLOUDY    29  24  82 W8        30.29R
RUSSELL        CLEAR     32  29  88 NE10      30.28R WCI  24
$$

KSZ061>065-074>080-084>089-121200-
SOUTHWEST KANSAS

CITY           SKY/WX    TMP DP  RH WIND       PRES   REMARKS
DODGE CITY     CLOUDY    32  27  81 N10       30.28R WCI  24
ELKHART          N/A     36  22  57 W7          N/A
GARDEN CITY    CLOUDY    32  27  81 N10       30.28R WCI  24
GREAT BEND     CLEAR     28  19  69 W3        30.30R
LIBERAL        CLOUDY    34  25  69 NW9       30.28R
PRATT          CLEAR     31  27  86 NW9       30.26R
$$

KSZ066>073-081>083-090>101-121200-
SOUTHEAST KANSAS

CITY           SKY/WX    TMP DP  RH WIND       PRES   REMARKS
CHANUTE        CLOUDY    28  23  81 N7        30.22R
COFFEYVILLE    CLOUDY    26  23  88 CALM      30.22R
HUTCHINSON     CLEAR     36  29  75 N9        30.27R
MEDICINE LODGE   N/A     32  29  88 NW6       30.25R
NEWTON         CLEAR     32  23  69 NW10      30.26R WCI  24
PARSONS        CLOUDY    23  21  92 CALM      30.22R
WICHITA INTL   PTCLDY    32  26  78 N7        30.24R
WICHITA JABRA  CLOUDY    33  27  78 NW10      30.24R WCI  25
WICHITA MCCONL CLOUDY    34  28  78 NW9       30.24R
WINFIELD       CLOUDY    27  22  81 N3        30.24R
$$

KSZ007>012-019>026-033>040-048>060-102>105-121200-
NORTHEAST KANSAS

CITY           SKY/WX    TMP DP  RH WIND       PRES   REMARKS
CONCORDIA      CLOUDY    28  25  88 N13       30.30R WCI  17
EMPORIA        CLOUDY    24  21  88 W5        30.23R
LAWRENCE       CLOUDY    28  24  85 NW6       30.26R
MANHATTAN      CLOUDY    28  25  88 N3        30.28R
MARYSVILLE     CLOUDY    28  27  93 NW3       30.29R
OLATHE IND     CLOUDY    30  23  75 NW6       30.24R
OLATHE EXE     CLOUDY    30  21  69 NW3       30.23R
SALINA         CLOUDY    32  27  81 N13       30.29R WCI  22
TOPEKA BILLARD CLOUDY    28  23  81 NW3       30.26R
TOPEKA FORBES  MOCLDY    26  22  84 NW5       30.24R
$$



USA.gov is the U.S. government's official web portal to all federal, state and local government web resources and services.